Dewpoint
52 52 52 52 52 52 52 52 52 52 51 50 49 49 49 50 51 51 47 48 49 55 56 51 49 51 53 52 54 53 44 39 39 40 41 46 44 43 40 33 49 56 57 61 64
51 51 52 51 51 51 51 51 51 51 50 49 48 48 49 50 48 46 48 53 53 54 53 48 47 51 51 50 52 48 43 39 40 42 44 45 45 44 35 32 54 58 62 63 64
52 52 50 51 52 51 50 50 50 51 50 49 47 47 48 49 42 41 51 53 54 51 50 51 48 48 49 48 47 47 43 42 43 46 48 46 43 43 35 30 46 58 60 61 62
52 52 49 50 51 51 50 50 49 49 49 48 47 47 47 46 26 40 48 50 53 49 48 51 48 46 45 44 46 43 45 42 46 50 48 46 47 44 38 31 38 52 61 61 61
52 51 49 50 50 51 51 50 48 48 48 47 46 46 45 40 38 42 45 42 43 44 46 47 45 45 42 44 45 40 41 41 48 50 49 48 46 44 44 45 39 56 59 59 60
51 50 51 49 49 49 50 49 48 47 47 46 46 46 42 34 38 41 41 39 39 45 46 47 44 44 43 44 44 44 41 43 46 47 43 45 44 43 44 38 39 57 58 58 58
50 50 50 49 48 48 47 48 47 47 47 46 46 44 40 35 38 40 41 39 41 44 45 48 49 43 44 42 44 42 41 42 42 41 43 46 42 44 45 44 34 39 47 47 54
48 50 49 50 49 49 48 46 45 45 46 46 46 44 35 41 40 38 41 40 41 48 47 51 51 43 43 43 43 38 40 37 40 41 41 43 38 44 45 42 33 34 33 33 33
46 47 49 49 50 49 50 49 45 45 46 46 44 41 32 40 40 39 41 40 42 49 50 49 51 42 41 39 36 38 34 34 35 39 37 38 32 39 43 39 33 33 33 32 32
46 47 48 49 49 50 50 48 47 45 45 46 45 37 35 33 37 38 39 42 43 44 46 47 48 39 38 37 29 33 34 33 32 36 36 34 31 32 34 33 33 33 34 33 32
47 46 47 48 49 50 47 40 37 36 38 36 36 34 35 38 40 41 42 41 40 40 40 45 39 32 35 37 35 33 32 32 33 34 35 34 32 33 32 31 31 32 33 33 31
47 47 46 48 49 50 42 38 38 37 31 36 35 37 40 42 34 40 43 37 35 35 40 42 33 34 38 38 36 34 32 32 32 34 34 33 33 33 33 33 31 31 31 32 30
48 47 46 47 49 43 40 39 42 42 34 35 39 39 39 39 33 38 41 38 35 34 36 36 37 38 37 37 35 33 31 30 30 30 30 31 30 31 33 33 32 31 31 31 31
48 47 47 46 43 41 39 42 43 41 30 34 36 38 39 39 34 42 42 39 37 34 37 39 37 36 37 36 35 31 32 31 30 29 28 30 26 26 30 31 31 32 30 30 28
47 47 48 45 42 41 41 43 42 40 12 36 37 44 41 38 38 37 42 41 34 36 36 36 36 36 35 36 34 31 32 30 30 29 27 26 25 26 25 29 30 31 30 29 31
47 47 47 47 45 45 45 44 42 21 13 33 38 37 37 37 37 37 38 44 42 38 39 39 41 38 37 39 36 37 31 31 31 29 24 26 25 24 22 23 27 29 29 27 36
48 48 46 46 40 45 45 41 21 21 31 32 35 36 34 35 36 38 36 37 35 32 32 37 37 40 39 36 38 34 29 25 24 26 23 26 25 25 24 25 26 27 27 27 38
48 48 48 46 45 45 41 27 17 28 31 36 37 37 35 37 37 37 35 34 37 36 33 32 30 37 38 35 33 32 28 23 19 22 22 25 24 25 27 28 27 28 31 36 40
46 43 43 44 45 43 33 19 19 21 30 33 34 35 33 36 38 38 37 36 35 36 30 29 31 38 40 39 37 34 32 27 21 19 18 22 22 22 27 27 27 33 37 39 41
40 40 40 45 44 41 27 25 24 32 34 35 30 30 32 35 34 32 34 37 37 37 34 30 29 35 39 39 39 36 35 26 21 14 17 19 19 19 25 27 30 34 37 40 41
39 37 42 46 44 34 23 24 32 36 36 34 33 29 29 32 33 30 29 32 36 37 35 31 29 32 38 36 34 37 34 30 27 20 17 15 17 21 20 27 30 33 37 39 41
35 30 42 45 31 31 29 33 37 35 37 36 36 33 29 28 29 30 29 31 33 36 33 33 30 29 33 36 38 37 35 29 23 20 18 16 17 20 22 28 32 34 36 38 41
35 34 40 42 27 28 33 35 37 35 34 33 31 31 30 28 28 30 31 34 34 33 32 33 30 27 29 32 36 37 36 32 27 23 17 17 18 22 26 29 33 33 35 37 40
33 26 32 37 35 33 32 33 34 36 35 32 30 30 28 28 30 30 30 34 33 32 39 35 29 24 21 22 30 33 36 33 27 21 22 20 20 21 25 27 31 33 35 38 39
31 28 31 25 31 32 33 34 32 32 34 32 30 30 28 26 28 30 32 32 32 34 33 29 27 26 29 31 28 29 31 33 27 30 26 27 24 23 23 27 31 34 35 39 38
28 26 29 27 30 31 32 32 34 34 34 32 31 34 31 27 27 28 30 30 29 30 30 30 24 24 24 29 27 25 28 33 33 31 31 29 26 25 25 28 30 33 36 38 38
32 32 30 27 26 30 26 29 33 35 36 36 35 33 30 31 32 31 32 31 31 29 29 28 26 22 17 26 24 19 24 28 31 28 29 27 30 26 25 28 30 31 37 38 38
Lifted_Index
6 6 5 5 4 4 4 4 3 2 2 2 3 3 4 5 5 5 5 5 3 1 1 1 0 -0 -1 -1 -1 -0 1 1 1 1 0 1 1 3 4 3 2 -1 -2 -3 -3
6 6 5 4 4 3 3 3 2 1 0 1 2 3 3 4 5 6 5 4 3 2 1 1 1 -0 -1 -1 -1 -0 1 1 1 1 0 0 1 2 4 3 1 -2 -3 -3 -3
6 5 5 4 3 3 2 2 2 0 -0 -0 1 1 2 4 5 6 5 4 3 2 1 1 1 0 -1 -1 -1 0 1 1 1 1 1 0 1 2 3 3 1 -2 -3 -4 -4
6 5 5 4 3 3 2 2 1 1 -0 -0 -0 0 1 3 5 5 5 4 3 3 2 2 1 1 -0 -1 -1 0 1 1 1 1 1 1 1 1 3 4 2 -1 -3 -3 -4
6 6 5 5 4 3 3 2 2 1 -0 -0 -0 -0 1 3 4 4 4 4 4 3 2 2 2 1 0 -0 -1 0 1 1 1 2 2 1 1 1 3 4 3 0 -2 -3 -3
7 6 5 5 5 4 3 3 2 1 -0 -1 -1 -0 1 2 3 4 5 5 4 4 2 1 1 1 1 -0 -1 -0 0 1 2 2 2 2 2 2 3 4 3 0 -1 -2 -2
7 6 6 5 5 5 4 3 2 0 -1 -1 -1 -0 1 1 2 3 4 4 3 3 2 1 1 1 1 -0 -1 -0 0 1 2 3 3 3 2 2 3 3 2 0 -0 -0 0
8 7 6 5 5 5 4 3 2 1 -1 -2 -2 -1 0 1 1 2 3 3 3 2 1 1 0 1 1 0 -0 -0 1 1 2 3 4 3 3 3 3 3 2 1 1 2 2
9 8 7 6 5 4 4 3 3 1 -0 -1 -1 -0 0 0 1 1 2 3 3 2 1 0 0 1 1 1 1 1 1 2 3 3 4 4 4 3 3 3 3 2 2 3 3
10 9 7 6 5 5 4 4 4 3 1 -0 -0 0 1 1 1 1 2 3 3 2 1 0 0 1 1 1 1 2 2 2 2 3 4 4 4 4 3 3 3 3 3 3 3
10 9 8 7 6 5 6 6 5 4 3 1 1 1 1 1 1 1 1 2 3 2 1 0 0 1 2 2 2 2 2 2 2 2 3 3 3 3 3 3 3 3 3 3 3
11 10 9 7 6 6 7 7 7 6 4 3 1 1 1 1 1 1 1 2 2 2 1 1 1 1 1 1 1 2 2 1 1 1 2 2 2 3 3 3 3 3 3 3 3
11 11 9 8 7 7 8 8 8 6 4 3 2 1 1 1 1 1 1 2 2 1 1 1 1 1 1 1 1 1 1 1 1 0 1 1 2 2 3 3 4 3 3 4 4
12 11 9 8 7 7 8 8 8 6 4 2 2 1 1 1 0 0 1 2 2 2 1 1 1 1 1 1 1 1 1 1 1 1 1 1 2 2 3 4 4 4 4 4 4
12 11 9 8 7 7 8 8 7 5 3 2 2 1 1 0 0 1 1 2 2 2 1 1 1 1 1 1 1 1 1 1 1 1 1 2 2 2 3 4 4 4 3 3 4
12 11 10 8 7 7 8 7 6 4 2 2 2 1 1 0 0 1 1 2 2 2 1 1 1 1 1 1 1 1 1 2 2 2 2 2 2 3 3 4 4 4 3 3 4
13 11 9 8 7 7 7 6 4 3 2 2 1 1 1 0 0 1 1 1 1 1 1 1 1 1 1 1 1 1 2 2 1 1 1 2 3 3 3 4 4 4 4 4 4
13 11 9 8 7 7 7 5 3 2 3 2 2 1 1 1 0 1 1 1 1 1 1 1 1 1 1 2 2 2 2 2 1 1 1 2 3 3 4 4 4 4 4 4 5
13 11 9 8 8 7 5 4 3 3 3 2 2 2 1 1 1 1 1 1 1 1 1 1 1 2 2 2 2 2 2 2 2 1 1 2 3 3 4 4 4 4 4 4 4
13 11 9 8 7 6 5 4 4 4 3 3 2 2 2 2 2 2 2 2 2 2 2 1 1 2 2 2 2 2 2 2 2 2 1 1 2 3 3 4 4 3 3 3 3
13 11 9 8 7 5 4 4 4 4 3 3 2 2 2 2 2 2 2 2 2 2 2 2 2 2 2 3 2 2 2 2 2 2 1 1 2 2 3 3 3 3 3 2 3
13 12 10 8 6 5 4 4 4 4 3 3 3 3 2 2 2 2 2 2 2 2 2 2 2 2 2 3 3 2 2 2 2 2 2 2 2 2 3 3 3 3 2 2 2
14 13 11 8 6 5 4 4 3 3 3 3 3 3 3 2 2 2 2 2 2 2 2 2 2 2 2 3 3 2 2 2 2 3 2 2 2 2 2 2 2 2 2 2 3
14 13 12 9 7 5 4 4 3 3 3 3 3 3 3 3 3 2 2 2 2 2 2 2 2 2 2 2 3 3 2 2 2 2 2 2 2 2 2 1 1 2 2 2 2
14 14 13 11 8 6 5 4 3 3 3 3 3 3 3 3 3 3 2 2 2 2 2 2 2 2 2 3 3 3 2 2 2 2 2 2 2 1 1 1 2 2 2 2 2
15 15 14 12 9 7 5 4 3 3 3 3 3 3 3 3 3 3 3 3 2 2 2 2 2 2 2 3 3 3 3 2 2 2 2 2 2 2 2 2 2 3 2 2 2
16 16 15 12 9 7 5 4 3 3 3 2 2 3 3 3 3 3 3 3 3 3 3 3 3 3 2 3 3 3 3 2 2 2 2 2 2 2 2 2 3 3 3 3 3